• In Belgium
  • List of Countries
  • For 7 days
  • Water Temperature
  • Satellite Maps
  • Weather Map
  • Weather Widgets
  • user-avatar
    Login

    Hourly Weather Trat

    Today, 13 November, Tuesday

    Time Temperature Precipitation Wind Pressure Humidity
    00:00 +24°C° 0 mm 0 mps 755 mmHg 93%
    01:00 +24°C° 0 mm 0 mps 755 mmHg 94%
    02:00 +24°C° 0.2 mm 0 mps 755 mmHg 94%
    03:00 +26°C° 0.2 mm 1 mps 754 mmHg 94%
    04:00 +26°C° 0.2 mm 1 mps 754 mmHg 95%
    05:00 +26°C° 0 mm 1 mps 754 mmHg 93%
    06:00 +26°C° 0 mm 1 mps 754 mmHg 92%
    07:00 +27°C° 0 mm 1 mps 755 mmHg 91%
    08:00 +29°C° 0 mm 1 mps 755 mmHg 81%
    09:00 +31°C° 0 mm 1 mps 755 mmHg 71%
    10:00 +33°C° 0 mm 1 mps 755 mmHg 62%
    11:00 +35°C° 0 mm 2 mps 755 mmHg 59%
    12:00 +35°C° 0 mm 2 mps 754 mmHg 57%
    13:00 +36°C° 0 mm 2 mps 753 mmHg 55%
    14:00 +36°C° 0.1 mm 2 mps 753 mmHg 59%
    15:00 +35°C° 0.1 mm 2 mps 752 mmHg 62%
    16:00 +35°C° 0.1 mm 2 mps 752 mmHg 66%
    17:00 +32°C° 0.2 mm 2 mps 752 mmHg 73%
    18:00 +30°C° 0.2 mm 1 mps 752 mmHg 80%
    19:00 +28°C° 0.2 mm 1 mps 753 mmHg 86%
    20:00 +28°C° 0.2 mm 1 mps 753 mmHg 87%
    21:00 +27°C° 0.2 mm 1 mps 754 mmHg 88%
    22:00 +25°C° 0.2 mm 0 mps 754 mmHg 89%
    23:00 +25°C° 0.2 mm 0 mps 754 mmHg 90%

    Tomorrow, 14 November, Wednesday

    Time Temperature Precipitation Wind Pressure Humidity
    00:00 +25°C° 0.2 mm 0 mps 754 mmHg 91%
    01:00 +24°C° 0.2 mm 0 mps 754 mmHg 91%
    02:00 +24°C° 0 mm 0 mps 754 mmHg 92%
    03:00 +26°C° 0 mm 1 mps 754 mmHg 92%
    04:00 +26°C° 0 mm 1 mps 753 mmHg 93%
    05:00 +26°C° 0 mm 1 mps 753 mmHg 91%
    06:00 +27°C° 0 mm 1 mps 754 mmHg 90%
    07:00 +27°C° 0 mm 1 mps 754 mmHg 89%
    08:00 +29°C° 0 mm 1 mps 755 mmHg 80%
    09:00 +31°C° 0 mm 1 mps 755 mmHg 71%
    10:00 +33°C° 0 mm 1 mps 756 mmHg 63%
    11:00 +33°C° 0 mm 1 mps 755 mmHg 61%
    12:00 +35°C° 0 mm 2 mps 755 mmHg 58%
    13:00 +36°C° 0 mm 2 mps 754 mmHg 56%
    14:00 +35°C° 0.1 mm 2 mps 753 mmHg 59%
    15:00 +35°C° 0.1 mm 2 mps 753 mmHg 62%
    16:00 +34°C° 0.1 mm 2 mps 752 mmHg 66%
    17:00 +32°C° 0.2 mm 2 mps 753 mmHg 73%
    18:00 +30°C° 0.2 mm 1 mps 753 mmHg 79%
    19:00 +28°C° 0.2 mm 1 mps 754 mmHg 86%
    20:00 +28°C° 0.1 mm 1 mps 755 mmHg 88%
    21:00 +27°C° 0.1 mm 1 mps 755 mmHg 89%
    22:00 +27°C° 0.1 mm 1 mps 756 mmHg 90%
    23:00 +25°C° 0.1 mm 0 mps 756 mmHg 91%

    Day after tomorrow, 15 November, Thursday

    Time Temperature Precipitation Wind Pressure Humidity
    00:00 +25°C° 0.1 mm 0 mps 755 mmHg 92%
    01:00 +24°C° 0.1 mm 0 mps 755 mmHg 93%
    02:00 +24°C° 0 mm 0 mps 755 mmHg 94%
    03:00 +26°C° 0 mm 1 mps 755 mmHg 94%
    04:00 +26°C° 0 mm 1 mps 754 mmHg 94%
    05:00 +26°C° 0 mm 1 mps 755 mmHg 93%
    06:00 +27°C° 0 mm 1 mps 755 mmHg 91%
    07:00 +27°C° 0 mm 1 mps 756 mmHg 89%
    08:00 +29°C° 0 mm 1 mps 756 mmHg 80%
    09:00 +31°C° 0 mm 1 mps 757 mmHg 70%
    10:00 +33°C° 0 mm 1 mps 757 mmHg 60%
    11:00 +34°C° 0 mm 1 mps 756 mmHg 58%
    12:00 +35°C° 0 mm 1 mps 756 mmHg 56%
    13:00 +36°C° 0 mm 2 mps 755 mmHg 53%
    14:00 +35°C° 0.1 mm 2 mps 755 mmHg 59%
    15:00 +35°C° 0.1 mm 2 mps 754 mmHg 64%
    16:00 +34°C° 0.1 mm 2 mps 754 mmHg 69%
    17:00 +31°C° 0.1 mm 2 mps 754 mmHg 76%
    18:00 +30°C° 0.1 mm 1 mps 755 mmHg 82%
    19:00 +28°C° 0.1 mm 1 mps 755 mmHg 88%
    20:00 +28°C° 0.1 mm 1 mps 756 mmHg 89%
    21:00 +27°C° 0.1 mm 1 mps 756 mmHg 90%
    22:00 +25°C° 0.1 mm 0 mps 757 mmHg 92%
    23:00 +25°C° 0.1 mm 0 mps 757 mmHg 92%

    16 November, Friday

    Time Temperature Precipitation Wind Pressure Humidity
    00:00 +25°C° 0.1 mm 0 mps 756 mmHg 93%
    01:00 +24°C° 0.1 mm 0 mps 756 mmHg 94%
    02:00 +24°C° 0 mm 0 mps 756 mmHg 94%
    03:00 +24°C° 0 mm 0 mps 755 mmHg 94%
    04:00 +26°C° 0 mm 1 mps 755 mmHg 95%
    05:00 +26°C° 0 mm 1 mps 755 mmHg 93%
    06:00 +27°C° 0 mm 1 mps 756 mmHg 92%
    07:00 +27°C° 0 mm 1 mps 756 mmHg 90%
    08:00 +29°C° 0 mm 1 mps 757 mmHg 80%
    09:00 +29°C° 0 mm 0 mps 757 mmHg 70%
    10:00 +32°C° 0 mm 0 mps 757 mmHg 60%
    11:00 +34°C° 0 mm 1 mps 756 mmHg 57%
    12:00 +35°C° 0 mm 1 mps 756 mmHg 54%
    13:00 +37°C° 0 mm 2 mps 755 mmHg 51%
    14:00 +36°C° 0.1 mm 2 mps 754 mmHg 55%
    15:00 +35°C° 0.1 mm 2 mps 754 mmHg 59%
    16:00 +35°C° 0.1 mm 2 mps 753 mmHg 63%
    17:00 +32°C° 0.1 mm 2 mps 754 mmHg 72%
    18:00 +30°C° 0.1 mm 1 mps 754 mmHg 80%
    19:00 +28°C° 0.1 mm 1 mps 755 mmHg 88%
    20:00 +28°C° 0.1 mm 1 mps 755 mmHg 89%
    21:00 +28°C° 0.1 mm 1 mps 756 mmHg 90%
    22:00 +25°C° 0.1 mm 0 mps 756 mmHg 91%
    23:00 +25°C° 0.2 mm 0 mps 756 mmHg 91%

    17 November, Saturday

    Time Temperature Precipitation Wind Pressure Humidity
    00:00 +25°C° 0.2 mm 0 mps 756 mmHg 92%
    01:00 +25°C° 0.2 mm 0 mps 755 mmHg 92%
    02:00 +25°C° 0 mm 0 mps 755 mmHg 93%
    03:00 +25°C° 0 mm 0 mps 755 mmHg 93%
    04:00 +24°C° 0 mm 0 mps 755 mmHg 94%
    05:00 +27°C° 0.3 mm 1 mps 755 mmHg 92%
    06:00 +27°C° 0.3 mm 1 mps 755 mmHg 91%
    07:00 +27°C° 0.3 mm 1 mps 756 mmHg 90%
    08:00 +27°C° 0 mm 0 mps 756 mmHg 80%
    09:00 +29°C° 0 mm 0 mps 757 mmHg 71%
    10:00 +31°C° 0 mm 0 mps 757 mmHg 62%
    11:00 +34°C° 0.1 mm 1 mps 756 mmHg 61%
    12:00 +34°C° 0.1 mm 1 mps 755 mmHg 60%
    13:00 +35°C° 0.1 mm 2 mps 754 mmHg 59%
    14:00 +34°C° 0.3 mm 2 mps 754 mmHg 64%
    15:00 +34°C° 0.3 mm 2 mps 754 mmHg 70%
    16:00 +32°C° 0.3 mm 2 mps 753 mmHg 75%
    17:00 +30°C° 0.3 mm 2 mps 754 mmHg 81%
    18:00 +29°C° 0.3 mm 1 mps 754 mmHg 86%
    19:00 +28°C° 0.3 mm 1 mps 755 mmHg 92%
    20:00 +28°C° 0.4 mm 1 mps 756 mmHg 92%
    21:00 +27°C° 0.4 mm 1 mps 756 mmHg 92%
    22:00 +25°C° 0.4 mm 0 mps 756 mmHg 93%
    23:00 +25°C° 0.2 mm 0 mps 756 mmHg 93%

    18 November, Sunday

    Time Temperature Precipitation Wind Pressure Humidity
    00:00 +25°C° 0.2 mm 0 mps 756 mmHg 93%
    01:00 +25°C° 0.2 mm 0 mps 755 mmHg 93%
    02:00 +25°C° 0.2 mm 0 mps 755 mmHg 93%
    03:00 +25°C° 0.2 mm 0 mps 755 mmHg 93%
    04:00 +24°C° 0.2 mm 0 mps 755 mmHg 93%
    05:00 +25°C° 0 mm 0 mps 755 mmHg 93%
    06:00 +25°C° 0 mm 0 mps 756 mmHg 92%
    07:00 +25°C° 0 mm 0 mps 756 mmHg 92%
    08:00 +27°C° 0.4 mm 0 mps 756 mmHg 86%
    09:00 +28°C° 0.4 mm 0 mps 757 mmHg 80%
    10:00 +29°C° 0.4 mm 0 mps 757 mmHg 75%
    11:00 +31°C° 2.3 mm 1 mps 756 mmHg 76%
    12:00 +31°C° 2.3 mm 1 mps 756 mmHg 76%
    13:00 +32°C° 2.3 mm 1 mps 755 mmHg 77%
    14:00 +31°C° 1.1 mm 1 mps 755 mmHg 79%
    15:00 +31°C° 1.1 mm 1 mps 754 mmHg 81%
    16:00 +30°C° 1.1 mm 1 mps 754 mmHg 83%
    17:00 +29°C° 0.3 mm 1 mps 754 mmHg 86%
    18:00 +26°C° 0.3 mm 0 mps 755 mmHg 88%
    19:00 +25°C° 0.3 mm 0 mps 756 mmHg 91%
    20:00 +25°C° 0.5 mm 0 mps 756 mmHg 91%
    21:00 +25°C° 0.5 mm 0 mps 756 mmHg 91%
    22:00 +25°C° 0.5 mm 0 mps 757 mmHg 91%
    23:00 +25°C° 0.7 mm 0 mps 756 mmHg 91%
    Show more